Torna al catalogo

HERMES-2

AttivoScienzaSSO
NORAD 63243·PAYLOAD·🇮🇹 Italy

Lanciato Mar 15, 2025 da Vandenberg Space Force Base

Loading…

Prossimi Passaggi (prossime 24 ore)

TLE

AggiornatoSource: Space-Track

Epoca: Sep 14, 2026, 11:53 UTC

1 63243U 25052AK  26257.49576654  .00005777  00000-0  19096-3 0  9994
2 63243  97.3754 151.9887 0005336 137.7167 222.4486 15.31747201 83687

Traccia HERMES-2 in tempo reale con AllMySat

Download on the App Store